Wind_Speed
22 21 19 18 19 19 18 18 18 18 17 16 15 16 15 16 16 16 16 15 15 16 16 15 16 17 18 17 16 16 17 8 8 7 7 9 6 7 9 12 9 8 9 8 4
23 22 21 19 17 17 18 18 18 18 17 16 16 16 15 15 15 15 15 16 16 16 16 16 15 16 17 17 17 16 14 7 11 10 9 8 6 7 8 12 13 11 10 12 7
24 23 23 22 20 20 20 19 19 18 18 17 16 15 15 15 15 13 15 15 16 16 15 14 14 15 15 16 17 16 16 10 16 16 11 13 8 13 7 11 11 13 13 16 14
24 24 23 22 22 21 20 18 19 18 17 18 17 16 16 16 11 15 15 15 16 15 16 14 14 14 13 13 16 16 14 17 19 14 14 14 12 12 11 9 13 10 19 15 16
26 25 24 23 21 20 20 18 19 18 18 18 17 17 17 16 17 11 16 15 15 15 15 15 14 13 13 12 14 15 17 15 18 17 16 15 14 16 12 11 16 15 18 17 16
25 25 24 23 22 22 21 20 19 19 18 18 18 18 18 19 18 12 15 16 16 16 16 16 16 16 13 16 12 15 17 16 17 18 17 16 15 18 10 13 17 17 19 23 19
25 24 24 24 23 21 21 21 20 20 19 19 19 19 19 19 17 18 11 16 16 17 17 16 15 15 17 15 15 15 15 17 18 19 20 17 19 18 15 18 17 20 17 21 23
25 24 22 23 23 22 21 20 20 20 19 19 18 19 20 19 18 18 18 14 17 17 17 17 17 16 17 15 14 11 16 17 16 17 20 18 24 14 15 14 12 16 19 20 21
26 24 24 23 22 21 21 20 20 19 19 19 19 19 19 20 20 17 17 16 15 15 17 17 18 18 17 16 12 12 12 11 17 16 19 17 22 16 15 16 15 15 17 20 20
25 24 25 24 22 21 21 20 20 20 19 19 19 17 17 22 19 19 16 17 17 15 15 16 17 18 19 18 11 7 12 14 13 16 17 19 25 18 21 21 21 20 19 21 20
25 24 25 25 24 22 22 21 20 20 22 23 16 24 6 18 21 20 19 18 19 19 17 16 18 20 19 20 18 15 12 8 6 14 21 23 28 25 22 24 25 21 19 21 21
25 26 25 24 23 23 22 22 21 20 21 22 23 16 23 9 17 21 21 21 21 20 19 19 22 16 14 16 16 20 20 20 16 21 25 24 32 30 27 25 25 25 23 21 20
29 27 26 24 23 23 22 20 20 19 18 22 23 24 15 22 17 21 21 23 21 21 21 20 11 18 22 21 21 20 20 20 16 19 23 28 36 30 21 23 25 26 23 22 21
34 30 29 27 27 25 21 19 16 17 11 16 23 25 26 21 24 22 21 21 23 22 20 18 23 19 18 22 22 23 21 18 19 22 12 13 13 35 22 20 23 23 24 22 23
23 33 33 33 29 27 21 16 13 12 3 11 22 28 29 30 26 26 22 20 22 20 22 16 19 23 27 25 18 18 17 20 21 19 18 24 14 36 21 23 24 21 22 21 22
21 33 24 30 33 30 30 24 18 11 8 10 14 23 30 32 32 26 25 26 22 22 23 23 17 17 21 23 23 22 17 13 14 15 11 26 23 20 26 19 13 14 16 19 15
18 22 26 23 38 30 26 34 25 13 17 14 16 16 24 33 34 33 31 28 31 23 28 25 29 25 23 18 17 20 11 3 3 3 7 6 16 28 8 12 16 15 17 18 19
24 23 21 29 31 25 26 29 11 14 25 10 14 17 19 24 30 32 34 32 32 30 14 24 13 29 33 36 25 21 24 13 6 4 3 8 14 16 10 8 15 14 12 24 24
25 25 24 20 21 21 22 27 21 21 24 21 10 16 17 18 14 22 31 35 37 35 24 17 14 19 18 20 31 22 30 29 21 24 8 12 28 32 32 28 21 18 21 28 18
27 26 25 24 24 24 25 31 26 18 24 23 27 20 13 18 17 13 13 12 29 27 27 25 22 19 21 22 23 35 14 13 17 2 4 15 25 26 20 24 32 17 20 22 23
28 28 28 27 26 28 31 32 31 16 22 15 16 18 20 19 20 19 11 12 10 19 28 29 24 13 20 27 29 31 33 16 15 22 5 5 13 22 16 14 13 9 6 7 14
23 27 30 28 30 32 33 38 25 26 19 23 22 22 19 20 24 24 24 24 20 17 14 28 14 25 25 20 21 30 35 37 23 8 19 20 39 30 20 23 19 16 13 13 15
21 23 25 30 35 37 33 31 24 28 23 25 27 26 23 19 15 20 18 20 23 25 18 14 15 7 9 17 23 27 34 31 36 29 23 15 35 23 8 2 10 9 15 17 18
24 18 22 28 33 33 37 34 34 35 30 27 27 27 25 27 24 10 19 17 18 19 21 21 22 24 18 4 8 18 26 27 26 22 41 35 48 55 44 36 32 27 27 33 34
29 26 26 23 35 35 31 29 34 31 32 33 28 26 27 26 27 28 26 17 13 17 20 21 22 24 30 31 25 24 19 16 17 28 24 44 37 62 51 47 43 45 44 38 38
32 34 33 34 31 35 34 37 29 29 32 32 35 27 31 27 25 19 25 26 24 20 26 27 22 21 33 33 32 37 42 42 36 41 40 46 49 48 45 47 45 47 44 44 47
36 37 37 35 35 32 38 40 36 28 30 33 22 29 23 27 33 30 28 26 26 24 22 16 16 17 31 25 16 22 45 38 43 46 44 43 52 46 49 49 52 49 49 58 58
Wind_Direction
201 198 198 201 203 196 199 202 203 199 195 193 191 187 188 184 185 186 189 191 195 194 197 202 205 213 210 212 217 222 233 258 268 262 271 282 259 243 256 258 262 234 243 262 224
206 200 197 200 204 202 207 203 206 201 198 197 196 192 189 190 192 192 187 193 194 195 194 196 198 206 210 211 213 218 226 230 269 230 218 266 270 258 252 248 251 248 240 253 243
206 205 202 197 202 204 207 206 206 204 201 198 198 196 196 195 197 192 198 195 196 196 196 196 198 199 204 208 216 219 222 241 258 253 262 267 253 257 261 260 257 250 239 252 248
204 206 207 206 202 205 210 208 210 208 206 202 200 200 201 198 192 208 203 199 198 199 199 196 195 199 206 210 221 224 237 241 253 261 263 258 254 258 261 261 261 254 253 244 254
205 203 207 208 208 207 211 212 213 213 209 205 203 203 204 203 202 198 206 203 203 203 203 202 200 204 208 229 226 234 243 249 259 265 260 261 257 258 250 252 263 254 260 264 256
208 205 204 207 207 208 209 209 213 217 214 210 208 206 209 211 207 201 202 207 207 209 209 210 208 211 213 228 225 232 242 258 260 263 262 259 256 257 259 260 260 261 259 268 263
207 209 205 204 206 210 209 209 210 211 213 212 211 209 213 213 214 213 207 209 213 213 214 217 220 222 229 239 240 246 256 260 262 262 262 264 257 263 281 269 258 265 258 259 266
208 208 210 207 203 205 209 212 213 212 214 215 213 214 219 216 217 214 215 213 213 218 216 221 225 229 235 244 250 255 253 259 270 268 265 259 264 266 268 268 266 262 268 264 264
207 203 207 211 206 204 205 208 212 213 215 214 215 217 221 218 220 218 218 222 218 216 217 222 225 230 234 239 253 256 252 269 256 265 274 262 268 267 266 267 271 270 270 270 271
203 203 202 205 206 204 205 207 210 211 214 216 216 214 220 218 219 220 221 220 219 219 214 217 223 226 227 224 213 249 261 247 243 264 268 266 268 263 269 268 266 268 272 275 277
203 202 203 201 202 203 203 204 209 213 213 214 216 218 203 214 215 217 219 221 218 219 218 220 221 223 233 236 228 254 251 241 265 270 276 275 274 272 266 266 274 276 273 274 280
202 206 207 204 202 203 204 207 213 216 216 217 219 218 218 216 218 217 218 221 221 223 219 222 231 228 227 225 234 238 249 249 259 277 284 284 278 275 272 270 275 273 274 278 278
203 203 207 206 204 203 204 209 215 220 224 223 224 224 217 222 222 217 219 223 222 223 225 230 232 229 230 233 234 242 250 258 264 277 279 297 288 285 284 267 264 271 273 276 281
202 204 202 203 208 203 198 207 215 223 231 245 231 228 222 222 227 223 221 220 224 224 225 237 229 232 241 246 245 251 254 263 268 272 282 280 293 278 266 263 280 277 283 274 268
193 206 207 207 211 207 197 205 212 208 224 227 224 225 223 218 227 221 221 223 230 226 221 231 245 237 242 246 244 246 251 252 262 273 278 270 268 278 290 284 281 284 285 270 262
220 204 199 209 217 216 217 224 228 215 232 227 215 216 214 219 224 226 224 224 226 224 225 230 236 236 243 248 247 245 240 245 264 274 259 261 251 277 279 285 278 279 276 272 252
243 238 217 196 213 215 212 220 212 209 221 238 223 217 216 220 219 222 227 225 221 218 231 236 238 239 239 242 231 228 217 233 267 205 240 251 247 242 215 250 264 250 289 263 245
224 223 227 228 216 200 214 213 200 224 200 207 215 214 218 217 223 225 226 226 226 227 233 234 226 245 242 242 242 243 221 201 208 204 270 218 247 268 274 253 257 276 254 246 272
224 225 223 218 222 233 216 213 222 213 212 223 212 203 200 209 210 220 227 235 238 226 219 229 239 246 240 242 233 224 217 232 263 275 295 256 263 272 273 274 277 272 271 261 254
224 224 224 219 216 212 216 227 238 212 213 214 218 216 199 218 211 211 216 242 236 230 229 232 253 249 237 235 222 222 237 210 209 205 250 262 278 263 281 282 289 277 269 265 268
225 223 221 218 214 209 214 220 231 217 215 204 207 214 217 218 227 220 205 233 231 219 223 227 225 239 234 227 231 225 223 213 215 223 184 272 262 283 283 261 265 268 224 273 293
224 218 219 215 210 214 222 225 216 205 209 213 218 216 233 222 224 227 225 221 210 204 207 213 226 237 243 249 238 232 239 220 216 215 233 249 265 242 259 281 281 281 286 289 277
230 220 213 212 214 221 227 219 224 219 214 211 218 215 215 219 213 213 235 233 239 243 229 216 216 225 234 236 232 231 227 226 232 241 242 213 254 264 259 260 320 300 301 287 303
233 224 217 215 216 222 227 228 225 226 223 229 229 224 222 224 227 225 220 223 228 223 244 239 235 216 225 164 216 226 239 231 236 238 243 246 252 256 258 269 279 280 281 287 289
230 225 226 224 219 221 217 227 228 221 231 224 223 222 219 226 229 234 228 226 218 228 233 242 245 243 250 248 239 259 252 233 240 240 255 257 260 261 269 278 285 285 282 278 280
230 228 226 227 227 223 220 221 224 230 224 233 226 231 224 220 224 234 237 233 234 235 239 252 249 257 266 265 268 272 275 274 270 272 274 272 271 268 283 286 284 281 283 284 288
228 231 230 233 231 228 228 233 231 217 227 234 239 228 217 230 226 227 232 234 233 234 230 228 236 249 261 270 271 253 262 273 277 273 266 251 270 278 278 280 280 281 282 285 289
Height
3088 3092 3095 3099 3102 3104 3108 3111 3114 3116 3118 3121 3123 3126 3129 3130 3132 3134 3136 3142 3144 3146 3149 3152 3154 3158 3159 3162 3165 3168 3171 3171 3173 3172 3173 3171 3172 3173 3175 3175 3176 3178 3178 3178 3180
3086 3090 3093 3096 3099 3102 3107 3110 3113 3115 3117 3120 3123 3125 3127 3129 3132 3134 3136 3140 3142 3146 3147 3150 3153 3156 3159 3160 3163 3166 3168 3171 3171 3170 3171 3171 3171 3172 3174 3175 3175 3176 3177 3177 3179
3083 3086 3091 3094 3097 3101 3105 3107 3111 3114 3116 3118 3121 3123 3126 3128 3131 3133 3137 3139 3142 3144 3147 3149 3152 3154 3157 3158 3161 3163 3165 3167 3168 3169 3170 3169 3170 3170 3172 3173 3174 3174 3175 3175 3177
3079 3084 3088 3092 3095 3099 3102 3105 3110 3112 3114 3117 3119 3122 3125 3128 3131 3134 3137 3138 3141 3144 3145 3147 3150 3153 3155 3158 3159 3162 3163 3165 3165 3168 3168 3168 3168 3168 3170 3171 3171 3173 3171 3174 3175
3077 3080 3085 3089 3092 3096 3100 3103 3107 3110 3113 3115 3118 3121 3124 3125 3131 3132 3135 3137 3140 3142 3144 3146 3149 3152 3154 3157 3159 3160 3160 3163 3163 3165 3165 3166 3166 3166 3167 3169 3168 3171 3170 3171 3173
3074 3078 3082 3085 3089 3094 3097 3100 3103 3107 3111 3114 3117 3119 3123 3127 3129 3130 3132 3135 3138 3140 3142 3145 3147 3150 3152 3154 3157 3157 3158 3160 3161 3162 3163 3163 3164 3163 3166 3166 3166 3168 3169 3167 3170
3071 3075 3079 3083 3086 3090 3093 3097 3101 3106 3110 3113 3116 3118 3121 3124 3125 3128 3130 3133 3136 3138 3140 3144 3147 3149 3150 3153 3154 3156 3157 3157 3158 3160 3160 3161 3161 3161 3163 3163 3164 3164 3166 3166 3165
3069 3073 3076 3080 3084 3087 3092 3097 3100 3103 3107 3110 3113 3115 3118 3120 3123 3125 3128 3132 3133 3136 3138 3142 3145 3147 3148 3152 3152 3154 3155 3156 3156 3157 3158 3160 3156 3159 3159 3159 3161 3162 3162 3162 3163
3066 3070 3074 3078 3082 3086 3090 3094 3098 3100 3104 3107 3110 3113 3116 3117 3121 3123 3126 3128 3130 3135 3136 3139 3142 3144 3147 3150 3151 3152 3153 3155 3155 3156 3155 3157 3153 3155 3156 3156 3157 3158 3159 3159 3159
3062 3066 3071 3075 3079 3082 3086 3090 3094 3098 3100 3103 3107 3112 3111 3114 3118 3119 3122 3126 3129 3133 3133 3136 3140 3141 3143 3147 3148 3151 3152 3153 3154 3154 3153 3151 3150 3154 3152 3152 3153 3154 3155 3155 3155
3059 3063 3068 3072 3076 3078 3084 3088 3093 3096 3097 3101 3104 3104 3107 3110 3114 3116 3121 3125 3126 3128 3130 3133 3136 3135 3141 3144 3146 3148 3150 3150 3152 3151 3151 3149 3146 3147 3149 3147 3148 3150 3151 3151 3152
3054 3060 3065 3068 3071 3076 3080 3084 3088 3092 3095 3096 3100 3102 3105 3108 3111 3114 3118 3121 3123 3125 3127 3131 3131 3136 3139 3141 3143 3145 3148 3148 3150 3148 3148 3146 3140 3141 3143 3143 3145 3145 3146 3147 3148
3050 3055 3061 3065 3068 3073 3077 3080 3084 3087 3092 3093 3095 3099 3103 3106 3107 3110 3114 3115 3118 3122 3123 3126 3131 3133 3135 3138 3142 3142 3144 3147 3148 3144 3144 3142 3134 3135 3137 3138 3139 3140 3141 3142 3143
3045 3051 3056 3060 3067 3069 3072 3077 3081 3085 3088 3089 3092 3094 3097 3101 3104 3107 3109 3113 3115 3118 3121 3122 3127 3129 3131 3135 3139 3139 3141 3143 3143 3144 3143 3141 3132 3127 3134 3133 3134 3137 3137 3137 3137
3036 3045 3050 3056 3060 3064 3070 3074 3079 3084 3087 3085 3084 3086 3091 3096 3097 3101 3105 3108 3112 3115 3119 3119 3121 3126 3128 3131 3135 3135 3138 3140 3139 3141 3139 3137 3138 3119 3126 3126 3128 3132 3132 3131 3131
3031 3039 3043 3050 3055 3061 3065 3070 3077 3084 3078 3076 3075 3077 3084 3087 3092 3095 3101 3105 3110 3111 3113 3116 3118 3122 3124 3127 3131 3132 3136 3138 3138 3138 3133 3130 3132 3115 3121 3121 3123 3126 3126 3126 3127
3027 3033 3037 3039 3047 3054 3059 3065 3072 3068 3070 3070 3071 3075 3080 3083 3085 3091 3096 3098 3105 3108 3108 3112 3112 3117 3120 3124 3125 3130 3134 3136 3138 3136 3125 3125 3123 3112 3117 3119 3121 3123 3125 3123 3124
3025 3030 3033 3038 3042 3045 3052 3058 3057 3057 3064 3064 3068 3073 3076 3077 3079 3085 3090 3093 3097 3102 3105 3106 3110 3110 3114 3117 3122 3124 3128 3127 3132 3130 3121 3120 3108 3105 3111 3114 3116 3117 3119 3119 3116
3021 3025 3029 3032 3037 3042 3047 3047 3045 3052 3059 3061 3066 3070 3072 3073 3078 3081 3085 3087 3090 3095 3101 3104 3104 3103 3107 3112 3115 3117 3119 3122 3124 3122 3120 3111 3104 3105 3106 3110 3112 3112 3111 3111 3113
3015 3020 3024 3029 3034 3038 3042 3041 3044 3048 3053 3055 3061 3067 3069 3071 3075 3077 3080 3082 3085 3089 3094 3097 3100 3099 3102 3106 3108 3110 3115 3118 3120 3123 3123 3103 3102 3100 3103 3106 3106 3108 3110 3109 3109
3009 3014 3020 3024 3030 3033 3034 3036 3039 3044 3048 3052 3057 3061 3064 3069 3071 3072 3075 3078 3080 3082 3087 3090 3094 3094 3095 3096 3100 3106 3106 3109 3112 3112 3110 3107 3097 3097 3099 3100 3101 3104 3104 3104 3104
3002 3008 3013 3017 3024 3025 3027 3029 3035 3039 3043 3049 3052 3056 3060 3063 3065 3068 3070 3071 3074 3077 3081 3086 3088 3087 3089 3092 3095 3097 3097 3102 3101 3103 3104 3105 3086 3095 3097 3098 3100 3102 3102 3102 3102
2996 3000 3005 3011 3013 3016 3021 3026 3030 3035 3039 3045 3047 3051 3057 3060 3061 3062 3065 3069 3070 3073 3076 3082 3082 3083 3085 3088 3087 3088 3092 3095 3098 3100 3096 3098 3081 3086 3089 3094 3096 3097 3097 3097 3097
2992 2996 2999 3002 3007 3010 3015 3020 3024 3030 3034 3038 3042 3047 3051 3054 3056 3059 3063 3063 3065 3066 3070 3075 3075 3077 3076 3079 3080 3083 3086 3090 3093 3092 3083 3089 3077 3075 3085 3089 3091 3091 3091 3091 3090
2984 2988 2991 2994 2998 3002 3008 3013 3018 3022 3027 3033 3035 3038 3042 3048 3051 3053 3059 3060 3062 3063 3067 3069 3068 3070 3071 3075 3077 3077 3080 3082 3083 3080 3085 3075 3081 3061 3079 3083 3085 3083 3083 3082 3081
2976 2981 2983 2987 2990 2996 3000 3005 3009 3015 3019 3022 3027 3033 3037 3040 3045 3050 3052 3054 3057 3057 3060 3061 3062 3065 3064 3068 3071 3071 3073 3072 3074 3074 3075 3070 3070 3067 3072 3074 3073 3072 3075 3071 3069
2967 2972 2976 2980 2984 2989 2992 2998 3003 3009 3013 3017 3022 3027 3029 3034 3039 3040 3043 3047 3050 3052 3055 3056 3056 3060 3056 3062 3064 3063 3055 3062 3061 3061 3063 3063 3058 3065 3061 3062 3060 3064 3064 3060 3059